Weather History for Greenville Downtown, SC

Change the Weather History Date:

Wednesday, November 20, 2013

  Actual Average Record
Temperature  
Mean Temperature 45 °F -  
Max Temperature 53 °F 59 °F 73 °F (2007)
Min Temperature 37 °F 40 °F 30 °F (1997)
Degree Days  
Heating Degree Days 20    
Moisture  
Dew Point 27 °F    
Average Humidity 49    
Maximum Humidity 65    
Minimum Humidity 35    
Precipitation  
Precipitation 0.00 in - - ()
Sea Level Pressure  
Sea Level Pressure 30.36 in    
Wind  
Wind Speed 10 mph (NE)    
Max Wind Speed 16 mph    
Max Gust Speed 22 mph    
Visibility 10 miles    
Events      
Averages and records for this station are not official NWS values.
T = Trace of Precipitation, MM = Missing Value Source: NWS Daily Summary

Daily Weather History Graph

Daily Weather History Graph

Search for Another Location

Airport:

Trip Planner

Search our weather history database for the weather conditions in past years. The results will help you decide how hot, cold, wet, or windy it might be!

Date:

Astronomy

Nov. 20, 2013 Rise Set
Actual Time 7:08 AM EST 5:21 PM EST
Civil Twilight 6:41 AM EST 5:48 PM EST
Nautical Twilight 6:10 AM EST 6:19 PM EST
Astronomical Twilight 5:40 AM EST 6:49 PM EST
Moon 8:03 PM EST (11/20) 9:32 AM EST (11/20)
Length of Visible Light 11h 06m
Length of Day
10h 12m
Waning Gibbous, 91% of the Moon is Illuminated
Nov 20
Waning Gibbous
Nov 25
Last Quarter
Dec 2
New
Dec 9
First Quarter
Dec 17
Full

Hourly Weather History & Observations

Time (EST) Temp. Windchill Dew Point Humidity Pressure Visibility Wind Dir Wind Speed Gust Speed Precip Events Conditions
12:53 AM 45.0 °F 40.6 °F 26.1 °F 48% 30.26 in 10.0 mi NE 8.1 mph - N/A   Clear
1:53 AM 43.0 °F 38.2 °F 26.1 °F 51% 30.27 in 10.0 mi NNE 8.1 mph - N/A   Clear
2:53 AM 42.1 °F 37.1 °F 26.1 °F 53% 30.29 in 10.0 mi NE 8.1 mph - N/A   Clear
3:53 AM 41.0 °F 35.2 °F 26.1 °F 55% 30.30 in 10.0 mi NNE 9.2 mph - N/A   Clear
4:53 AM 39.0 °F 32.8 °F 27.0 °F 62% 30.32 in 10.0 mi NNE 9.2 mph - N/A   Clear
5:53 AM 39.0 °F 32.8 °F 27.0 °F 62% 30.34 in 10.0 mi NNE 9.2 mph - N/A   Clear
6:53 AM 37.9 °F 31.5 °F 27.0 °F 65% 30.36 in 10.0 mi NE 9.2 mph - N/A   Clear
7:53 AM 39.0 °F 32.3 °F 27.0 °F 62% 30.38 in 10.0 mi NE 10.4 mph - N/A   Clear
8:53 AM 42.1 °F 35.2 °F 27.0 °F 55% 30.40 in 10.0 mi NE 12.7 mph 21.9 mph N/A   Clear
9:53 AM 45.0 °F 37.9 °F 27.0 °F 49% 30.42 in 10.0 mi NE 16.1 mph - N/A   Clear
10:53 AM 46.9 °F - 26.1 °F 44% 30.41 in 10.0 mi ENE 9.2 mph 16.1 mph N/A   Clear
11:53 AM 48.9 °F - 27.0 °F 43% 30.38 in 10.0 mi NE 11.5 mph - N/A   Clear
12:53 PM 51.1 °F - 26.1 °F 38% 30.35 in 10.0 mi East 11.5 mph - N/A   Clear
1:53 PM 52.0 °F - 26.1 °F 37% 30.34 in 10.0 mi NE 9.2 mph - N/A   Clear
2:53 PM 53.1 °F - 26.1 °F 35% 30.33 in 10.0 mi NNE 10.4 mph - N/A   Clear
3:53 PM 52.0 °F - 27.0 °F 38% 30.33 in 10.0 mi NE 10.4 mph - N/A   Clear
4:53 PM 50.0 °F - 27.0 °F 41% 30.34 in 10.0 mi NE 10.4 mph - N/A   Clear
5:53 PM 48.9 °F - 28.0 °F 44% 30.36 in 10.0 mi ENE 6.9 mph - N/A   Overcast
6:53 PM 48.0 °F - 28.0 °F 46% 30.38 in 10.0 mi NE 6.9 mph - N/A   Mostly Cloudy
7:53 PM 46.9 °F - 28.9 °F 50% 30.39 in 10.0 mi NE 10.4 mph - N/A   Mostly Cloudy
8:53 PM 48.0 °F - 30.0 °F 50% 30.41 in 10.0 mi NE 10.4 mph - N/A   Overcast
9:53 PM 48.0 °F - 30.0 °F 50% 30.42 in 10.0 mi NNE 11.5 mph 20.7 mph N/A   Overcast
10:53 PM 46.9 °F - 30.0 °F 52% 30.43 in 10.0 mi NE 10.4 mph - N/A   Overcast
11:53 PM 46.9 °F - 30.0 °F 52% 30.43 in 10.0 mi NE 12.7 mph - N/A   Overcast